Location: Asheville, NC
(35.6000°N, 82.5500°W)
Time: 06:23:53
(UTC-05:00)

Tiangong 2 - Pass Details

Date: 06 January 2018
Orbit: 384 x 390 km, 42.8° (Epoch: 18 January)

Event Time Altitude Azimuth Distance (km) Brightness Sun altitude
Rises 18:26:27 0° 279° (W) 2,260 6.1 -10.9°
Reaches altitude 10° 18:29:19 10° 251° (WSW) 1,401 5.5 -11.5°
Maximum altitude 18:30:56 13° 220° (SW) 1,220 4.5 -11.8°
Drops below altitude 10° 18:32:32 10° 189° (S) 1,394 4.3 -12.1°
Sets 18:35:22 0° 161° (SSE) 2,241 4.9 -12.6°
